Location: Limerick
(52.6650°N, 8.6230°W)
Time: 19:48:42
(UTC+01:00)

ISS - Pass Details

Date: 24 July 2017
Orbit: 400 x 408 km, 51.6° (Epoch: 21 July)

Event Time Altitude Azimuth Distance (km) Brightness Sun altitude
Rises 23:03:00 0° 226° (SW) 2,304 -0.1 -10.0°
Reaches altitude 10° 23:05:13 10° 215° (SW) 1,448 -1.2 -10.2°
Maximum altitude 23:08:06 30° 153° (SSE) 755 -3.0 -10.4°
Drops below altitude 10° 23:10:59 10° 90° (E) 1,454 -1.4 -10.7°
Sets 23:13:12 0° 79° (E) 2,316 -0.2 -10.9°
